Waarnemingen

Advertentie
Mijn weer
Pau, Frankrijk (7610): temperatuur & dauwpunt: 19.03.2019 23:00:00 - 25.03.2019 23:00:00 (CET)Pau, Frankrijk (7610): temperatuur 5cm: 19.03.2019 23:00:00 - 25.03.2019 23:00:00 (CET)Pau, Frankrijk (7610): temperatuur -20cm & temperatuur -100cm: 19.03.2019 23:00:00 - 25.03.2019 23:00:00 (CET)Pau, Frankrijk (7610): windsnelheid & windstoten: 19.03.2019 23:00:00 - 25.03.2019 23:00:00 (CET)Pau, Frankrijk (7610): windrichting: 19.03.2019 23:00:00 - 25.03.2019 23:00:00 (CET)Pau, Frankrijk (7610): luchtdruk: 19.03.2019 23:00:00 - 25.03.2019 23:00:00 (CET)Pau, Frankrijk (7610): zicht: 19.03.2019 23:00:00 - 25.03.2019 23:00:00 (CET)Pau, Frankrijk (7610): Zonneschijnduur: 19.03.2019 23:00:00 - 25.03.2019 23:00:00 (CET)Pau, Frankrijk (7610): neerslag: 19.03.2019 23:00:00 - 25.03.2019 23:00:00 (CET)
Datum & Tijd tt [°C] td [°C] tt 5cm [°C] tt -20cm [°C] tt -100cm [°C] ff [km/u] ff [kn] fx [km/u] fx [kn] dd ppp [hPa] vv [km] sd [min] rr [mm]
25.03.2019 23:00:00 8,1 2,1 2,3 12,8 11,5 0 0 9 5 N 1028,0 37 0 0,0
25.03.2019 22:00:00 9,4 2,3 4,8 12,8 11,5 5 3 15 8 NNO 1027,5 32 0 0,0
25.03.2019 21:00:00 10,2 4,8 7,9 12,8 11,5 8 5 14 8 NW 1026,7 32 0 0,0
25.03.2019 20:00:00 11,0 4,4 9,4 12,7 11,5 13 7 30 16 W 1025,8 35 0 0,0
25.03.2019 19:00:00 13,2 4,6 12,1 12,6 11,5 19 10 27 15 WNW 1024,9 35 51 0,0
25.03.2019 18:00:00 15,4 1,5 17,7 12,5 11,5 13 7 23 12 WNW 1024,4 36 60 0,0
25.03.2019 17:00:00 15,6 2,7 20,0 12,4 11,5 10 6 24 13 WNW 1024,7 25 58 0,0
25.03.2019 16:00:00 15,1 3,9 17,2 12,3 11,5 13 7 31 17 NW 1025,6 14 53 0,0
25.03.2019 15:00:00 14,8 4,2 18,0 12,1 11,4 11 6 29 16 NNW 1026,2 15 49 0,0
25.03.2019 14:00:00 14,3 3,1 21,3 12,1 11,5 10 5 25 14 WNW 1026,9 9 60 0,0
25.03.2019 13:00:00 13,5 4,6 16,0 12,1 11,5 11 6 26 14 WNW 1027,6 7 55 0,0
25.03.2019 12:00:00 12,5 3,4 18,7 12,1 11,4 10 5 24 13 NNW 1028,3 10 55 0,0
25.03.2019 11:00:00 11,4 5,0 14,3 12,1 11,4 9 5 19 11 WNW 1028,8 8 53 0,0
25.03.2019 10:00:00 9,7 5,5 10,6 12,2 11,4 8 5 16 8 WNW 1028,9 6 30 0,0
25.03.2019 09:00:00 7,8 5,3 7,4 12,2 11,4 10 5 16 8 NW 1028,6 7 5 0,0
25.03.2019 08:00:00 6,8 5,4 6,9 12,3 11,4 6 4 12 6 NW 1028,1 6 0 0,0
25.03.2019 07:00:00 6,9 6,3 6,9 12,3 11,4 6 3 18 10 NNW 1027,3 4,0 0 0,0
25.03.2019 06:00:00 7,4 7,1 5,9 12,4 11,5 7 4 16 9 N 1026,8 0,9 0 0,0
25.03.2019 05:00:00 8,6 7,8 7,8 12,5 11,4 9 5 18 10 NNW 1026,6 2,6 0 0,0
25.03.2019 04:00:00 8,7 8,4 3,5 12,6 11,4 11 6 18 10 WNW 1026,8 1,6 0 0,0
25.03.2019 03:00:00 6,7 6,3 1,4 12,6 11,4 9 5 17 9 W 1026,6 3,4 0 0,0
25.03.2019 02:00:00 7,1 5,7 2,4 12,6 11,4 0 0 9 5 N 1026,6 8 0 0,0
25.03.2019 01:00:00 8,7 6,8 3,3 12,7 11,4 4 2 9 5 W 1026,5 12 0 0,0
25.03.2019 00:00:00 9,1 6,7 4,5 12,7 11,4 4 2 17 9 W 1026,6 15 0 0,0
24.03.2019 23:00:00 10,6 7,7 7,3 12,7 11,4 10 5 18 10 WZW 1026,5 16 0 0,0
24.03.2019 22:00:00 11,3 7,4 8,3 12,6 11,4 13 7 21 12 W 1026,3 21 0 0,0
24.03.2019 21:00:00 13,2 6,5 9,2 12,6 11,4 14 8 19 11 W 1025,4 32 0 0,0
24.03.2019 20:00:00 14,8 6,4 9,0 12,4 11,4 13 7 23 12 WNW 1024,7 38 0 0,0
24.03.2019 19:00:00 18,6 4,0 14,7 12,3 11,4 5 3 16 9 NNW 1023,7 60 53 0,0
24.03.2019 18:00:00 20,1 3,3 22,3 12,1 11,4 9 5 21 12 N 1023,4 54 60 0,0
24.03.2019 17:00:00 20,8 2,6 24,9 12,0 11,4 8 4 21 11 NO 1023,3 50 60 0,0
24.03.2019 16:00:00 20,9 2,7 25,9 11,8 11,4 11 6 22 12 NNO 1023,7 51 60 0,0
24.03.2019 15:00:00 20,9 0,1 26,0 11,7 11,4 14 7 22 12 N 1024,0 47 60 0,0
24.03.2019 14:00:00 20,6 3,3 26,2 11,6 11,4 9 5 21 12 NNW 1024,8 47 60 0,0
24.03.2019 13:00:00 19,5 5,9 25,9 11,6 11,4 8 4 20 11 NNW 1025,4 42 60 0,0
24.03.2019 12:00:00 18,1 8,1 25,0 11,5 11,3 9 5 17 9 NW 1026,0 38 60 0,0
24.03.2019 11:00:00 16,3 6,1 23,1 11,6 11,4 8 4 16 8 NW 1026,4 23 60 0,0
24.03.2019 10:00:00 14,5 6,8 20,0 11,7 11,4 4 2 8 4 W 1026,2 19 60 0,0
24.03.2019 09:00:00 12,1 5,7 12,2 11,8 11,4 3 2 9 5 ZO 1026,2 31 60 0,0
24.03.2019 08:00:00 7,9 3,9 1,7 11,8 11,4 8 5 12 6 OZO 1026,2 27 44 0,0
24.03.2019 07:00:00 4,9 2,8 0,9 11,9 11,4 8 4 9 5 OZO 1026,2 24 0 0,0
24.03.2019 06:00:00 5,1 2,6 1,1 12,0 11,4 9 5 10 6 ZO 1025,8 22 0 0,0
24.03.2019 05:00:00 5,5 3,2 1,8 12,1 11,4 10 5 11 6 ZO 1025,5 23 0 0,0
24.03.2019 04:00:00 6,4 3,7 0,7 12,2 11,4 6 3 8 5 ZZO 1025,4 22 0 0,0
24.03.2019 03:00:00 6,0 3,3 2,6 12,2 11,4 5 3 8 4 OZO 1025,7 22 0 0,0
24.03.2019 02:00:00 7,0 4,3 1,2 12,3 11,4 6 4 9 5 OZO 1025,7 25 0 0,0
24.03.2019 01:00:00 8,8 4,2 3,9 12,3 11,3 6 3 9 5 ZZO 1025,7 27 0 0,0
24.03.2019 00:00:00 8,7 4,7 4,7 12,3 11,4 8 4 9 5 O 1025,8 28 0 0,0
23.03.2019 23:00:00 11,0 4,2 5,6 12,3 11,4 4 2 14 7 ZO 1025,8 45 0 0,0
23.03.2019 22:00:00 12,9 4,6 6,4 12,3 11,4 6 3 13 7 Z 1025,4 54 0 0,0
23.03.2019 21:00:00 13,9 4,7 7,8 12,2 11,4 8 4 11 6 NO 1025,1 47 0 0,0
23.03.2019 20:00:00 15,3 4,3 7,8 12,1 11,3 4 2 11 6 ONO 1024,5 56 0 0,0
23.03.2019 19:00:00 18,1 3,9 15,2 11,9 11,3 9 5 20 11 NO 1024,2 60 33 0,0
23.03.2019 18:00:00 20,2 3,8 20,3 11,8 11,3 13 7 26 14 NO 1023,8 56 48 0,0
23.03.2019 17:00:00 21,8 4,4 24,7 11,6 11,3 16 9 27 15 NNO 1023,7 52 60 0,0
23.03.2019 16:00:00 21,8 4,4 24,7 11,4 11,3 14 8 23 13 NNO 1024,1 46 58 0,0
23.03.2019 15:00:00 22,2 5,2 26,8 11,3 11,3 13 7 26 14 NO 1024,5 58 60 0,0
23.03.2019 14:00:00 21,5 3,6 26,4 11,2 11,3 16 9 30 16 NO 1025,5 46 60 0,0
23.03.2019 13:00:00 21,2 3,4 26,7 11,1 11,3 12 6 22 12 NO 1026,1 36 60 0,0
23.03.2019 12:00:00 19,5 5,5 26,8 11,1 11,3 7 4 18 10 ONO 1026,7 34 60 0,0
23.03.2019 11:00:00 17,4 6,9 22,6 11,2 11,3 3 2 8 4 NO 1027,0 19 60 0,0
23.03.2019 10:00:00 14,5 6,3 19,9 11,3 11,3 5 3 8 4 Z 1027,8 33 60 0,0
23.03.2019 09:00:00 11,5 4,0 10,0 11,4 11,3 3 1 9 5 Z 1027,9 30 60 0,0
23.03.2019 08:00:00 6,1 2,9 1,9 11,4 11,3 4 2 8 5 ONO 1028,1 23 40 0,0
23.03.2019 07:00:00 5,3 1,6 0,9 11,5 11,3 4 2 10 6 OZO 1027,9 28 0 0,0
23.03.2019 06:00:00 6,0 1,7 2,4 11,6 11,3 9 5 14 8 OZO 1027,8 28 0 0,0
23.03.2019 05:00:00 5,9 2,2 1,6 11,6 11,3 10 6 14 8 OZO 1028,0 23 0 0,0
23.03.2019 04:00:00 6,2 2,3 1,8 11,7 11,3 7 4 9 5 ZZO 1028,1 20 0 0,0
23.03.2019 03:00:00 6,5 2,4 1,7 11,8 11,3 9 5 11 6 ZO 1028,4 20 0 0,0
23.03.2019 02:00:00 7,2 2,5 2,9 11,8 11,3 4 2 11 6 ZO 1028,6 19 0 0,0
23.03.2019 01:00:00 8,4 2,8 3,0 11,8 11,3 7 4 10 6 OZO 1028,4 20 0 0,0
23.03.2019 00:00:00 7,9 3,5 3,0 11,8 11,3 4 2 9 5 O 1028,5 20 0 0,0
22.03.2019 23:00:00 9,5 3,5 4,5 11,8 11,3 11 6 13 7 OZO 1028,5 24 0 0,0
22.03.2019 22:00:00 9,2 4,2 4,5 11,8 11,3 4 2 7 4 ZZO 1028,3 36 0 0,0
22.03.2019 21:00:00 11,8 4,0 5,8 11,7 11,3 4 2 8 4 O 1027,7 34 0 0,0
22.03.2019 20:00:00 14,3 2,8 7,6 11,5 11,3 6 3 9 5 NNO 1027,1 50 0 0,0
22.03.2019 19:00:00 16,8 2,0 14,2 11,4 11,3 8 5 17 9 NO 1026,5 58 51 0,0
22.03.2019 18:00:00 18,3 1,7 19,2 11,2 11,3 11 6 18 10 NO 1025,9 58 60 0,0
22.03.2019 17:00:00 18,9 2,3 22,8 11,1 11,3 9 5 22 12 NNO 1025,9 48 60 0,0
22.03.2019 16:00:00 19,2 2,9 24,0 10,9 11,4 14 7 24 13 NO 1026,1 41 60 0,0
22.03.2019 15:00:00 19,2 2,5 25,4 10,8 11,3 10 5 23 12 NNO 1026,5 50 60 0,0
22.03.2019 14:00:00 18,9 1,4 24,8 10,7 11,3 10 5 22 12 NO 1027,0 44 60 0,0
22.03.2019 13:00:00 18,2 0,8 23,8 10,7 11,3 8 4 18 10 ONO 1027,8 20 60 0,0
22.03.2019 12:00:00 17,4 2,2 21,9 10,7 11,3 9 5 24 13 O 1028,3 35 60 0,0
22.03.2019 11:00:00 16,5 3,2 21,5 10,7 11,3 11 6 22 12 OZO 1028,5 30 60 0,0
22.03.2019 10:00:00 13,2 4,3 15,9 10,8 11,3 6 3 12 7 ZZO 1029,0 39 60 0,0
22.03.2019 09:00:00 9,8 2,9 9,0 10,9 11,3 7 4 14 8 ZO 1028,9 36 60 0,0
22.03.2019 08:00:00 5,0 1,3 0,0 11,0 11,3 9 5 13 7 OZO 1028,9 20 41 0,0
22.03.2019 07:00:00 3,6 0,5 0,7 11,1 11,3 7 4 16 9 ZO 1028,8 29 0 0,0
22.03.2019 06:00:00 3,1 0,7 0,1 11,2 11,3 11 6 14 7 ZO 1028,6 26 0 0,0
22.03.2019 05:00:00 3,6 0,8 0,1 11,2 11,3 4 2 11 6 OZO 1028,8 23 0 0,0
22.03.2019 04:00:00 3,4 1,1 -0,2 11,3 11,3 9 5 10 5 ZO 1028,8 18 0 0,0
22.03.2019 03:00:00 2,7 0,9 0,1 11,4 11,3 4 2 10 5 O 1029,0 17 0 0,0
22.03.2019 02:00:00 3,8 1,5 0,3 11,4 11,3 4 2 13 7 ZZO 1029,1 18 0 0,0
22.03.2019 01:00:00 4,8 2,0 0,6 11,5 11,3 8 4 11 6 OZO 1029,3 16 0 0,0
22.03.2019 00:00:00 4,9 2,4 0,4 11,5 11,3 5 3 9 5 OZO 1029,6 17 0 0,0
21.03.2019 23:00:00 5,9 2,9 1,0 11,5 11,4 4 2 12 7 O 1029,4 19 0 0,0
21.03.2019 22:00:00 7,1 2,8 1,8 11,4 11,3 2 1 4 2 ZZW 1029,3 29 0 0,0
21.03.2019 21:00:00 9,0 2,3 2,6 11,3 11,3 4 2 8 5 O 1028,8 30 0 0,0
21.03.2019 20:00:00 11,5 2,0 4,6 11,2 11,4 5 3 11 6 NO 1028,1 49 0 0,0
21.03.2019 19:00:00 13,5 1,5 9,8 11,1 11,4 4 2 14 8 N 1027,9 59 50 0,0
21.03.2019 18:00:00 14,9 1,4 17,5 10,9 11,3 10 5 22 12 N 1027,4 52 60 0,0
21.03.2019 17:00:00 15,6 0,9 20,3 10,7 11,3 5 3 16 8 WNW 1027,4 44 60 0,0
21.03.2019 16:00:00 15,7 0,3 21,3 10,6 11,3 5 3 15 8 NNO 1027,6 41 60 0,0
21.03.2019 15:00:00 15,1 -0,3 22,0 10,4 11,3 4 2 17 9 OZO 1028,0 49 60 0,0
21.03.2019 14:00:00 14,6 0,1 21,6 10,4 11,4 8 4 18 10 WNW 1028,9 44 60 0,0
21.03.2019 13:00:00 14,2 2,7 21,4 10,3 11,3 8 4 16 9 WNW 1029,5 45 60 0,0
21.03.2019 12:00:00 12,8 3,2 19,8 10,4 11,4 3 2 15 8 Z 1030,0 20 60 0,0
21.03.2019 11:00:00 11,2 3,9 17,7 10,4 11,3 4 2 14 8 WNW 1030,4 39 60 0,0
21.03.2019 10:00:00 9,2 2,1 14,6 10,5 11,3 3 2 9 5 W 1031,0 48 60 0,0
21.03.2019 09:00:00 7,0 0,9 7,7 10,6 11,3 5 3 10 5 ZO 1031,2 41 60 0,0
21.03.2019 08:00:00 3,1 -0,9 -3,1 10,7 11,4 5 3 9 5 ZO 1031,4 29 36 0,0
21.03.2019 07:00:00 0,3 -1,5 -2,9 10,8 11,4 4 2 10 6 O 1031,1 37 0 0,0
21.03.2019 06:00:00 1,6 -1,0 -0,8 10,8 11,3 8 4 13 7 OZO 1030,8 34 0 0,0
21.03.2019 05:00:00 1,6 -0,8 -2,0 10,9 11,4 9 5 11 6 OZO 1030,7 28 0 0,0
21.03.2019 04:00:00 1,6 -0,8 -1,9 11,0 11,4 8 4 10 6 ZO 1030,7 24 0 0,0
21.03.2019 03:00:00 2,4 -0,4 -0,7 11,0 11,3 9 5 10 5 OZO 1031,0 23 0 0,0
21.03.2019 02:00:00 2,6 0,0 -0,9 11,1 11,4 3 2 10 5 O 1031,4 20 0 0,0
21.03.2019 01:00:00 2,6 0,2 -1,0 11,1 11,4 5 3 10 5 OZO 1032,0 23 0 0,0
21.03.2019 00:00:00 4,1 0,2 -0,7 11,1 11,3 8 5 11 6 ZZO 1032,2 23 0 0,0
20.03.2019 23:00:00 4,7 0,8 0,6 11,2 11,4 7 4 9 5 OZO 1032,2 23 0 0,0
20.03.2019 22:00:00 4,8 1,3 0,7 11,1 11,4 4 2 9 5 NNW 1032,4 25 0 0,0
20.03.2019 21:00:00 6,6 1,5 2,2 11,1 11,4 5 3 10 5 O 1031,9 37 0 0,0
20.03.2019 20:00:00 9,5 -1,0 3,7 11,0 11,4 4 2 9 5 O 1031,3 58 0 0,0
20.03.2019 19:00:00 12,6 -2,5 9,6 10,8 11,3 4 2 18 10 NO 1030,6 60 49 0,0
20.03.2019 18:00:00 13,7 -2,3 16,2 10,7 11,3 8 5 21 11 NO 1030,3 59 60 0,0
20.03.2019 17:00:00 13,9 0,2 18,1 10,5 11,4 9 5 22 12 N 1030,3 50 60 0,0
20.03.2019 16:00:00 13,4 -0,3 18,2 10,4 11,4 13 7 44 24 N 1030,6 49 60 0,0
20.03.2019 15:00:00 13,3 0,6 18,9 10,3 11,4 9 5 20 11 ONO 1031,0 57 60 0,0
20.03.2019 14:00:00 12,3 -0,9 18,8 10,2 11,3 8 4 34 18 N 1031,7 34 60 0,0
20.03.2019 13:00:00 12,0 -0,9 17,8 10,2 11,3 9 5 24 13 N 1032,6 41 60 0,0
20.03.2019 12:00:00 11,6 0,4 17,3 10,2 11,3 11 6 26 14 NNO 1032,8 20 60 0,0
20.03.2019 11:00:00 9,5 4,5 16,1 10,3 11,3 5 3 11 6 WNW 1033,4 19 60 0,0
20.03.2019 10:00:00 6,4 5,3 8,9 10,4 11,3 4 2 10 5 WZW 1033,4 13 60 0,0
20.03.2019 09:00:00 3,2 3,2 3,5 10,5 11,4 4 2 6 3 WNW 1033,3 2,1 60 0,0
20.03.2019 08:00:00 0,8 0,8 -3,6 10,6 11,4 3 2 8 4 NNO 1032,9 0,4 35 0,0
20.03.2019 07:00:00 0,3 -0,1 -3,5 10,7 11,4 3 2 5 3 OZO 1032,4 3,1 0 0,0
20.03.2019 06:00:00 0,3 -0,1 -3,0 10,7 11,4 0 0 6 3 N 1032,2 2,4 0 0,0
20.03.2019 05:00:00 0,8 0,5 -2,9 10,8 11,3 2 1 8 5 ONO 1032,1 1,0 0 0,0
20.03.2019 04:00:00 1,3 0,9 -1,8 10,9 11,4 4 2 8 4 OZO 1031,8 6 0 0,0
20.03.2019 03:00:00 1,9 1,5 -1,8 11,0 11,4 4 2 6 3 ONO 1032,1 9 0 0,0
20.03.2019 02:00:00 2,5 1,9 -1,1 11,0 11,3 3 2 6 3 ONO 1032,4 7 0 0,0
20.03.2019 01:00:00 3,1 2,5 0,1 11,0 11,3 4 2 9 5 OZO 1032,6 7 0 0,0
20.03.2019 00:00:00 3,7 3,0 0,4 11,1 11,3 2 1 5 3 O 1032,5 9 0 0,0
19.03.2019 23:00:00 4,5 3,6 0,9 11,1 11,3 4 2 5 3 NO 1032,2 9 0 0,0

tt = temperatuur
td = dauwpunt
tt 5cm = temperatuur 5cm
tt -20cm = temperatuur -20cm
tt -100cm = temperatuur -100cm
ff = windsnelheid
fx = windstoten
dd = windrichting
ppp = luchtdruk
vv = zicht
sd = Zonneschijnduur
rr = neerslag

Weerstations in de omgeving